Wind_Speed
10 8 7 6 5 5 6 5 6 6 6 5 5 4 4 4 3 2 1 1 1 2 3 4 5 5 6 7 8 8 8 9 9 9 9 9 9 8 8 8 8 7 8 7 7 6 6 5 5
11 9 8 7 6 6 6 6 7 7 6 5 5 4 4 4 3 3 2 1 1 2 3 4 4 5 6 7 7 8 9 10 10 9 10 10 9 9 9 8 8 8 8 8 7 6 6 5 5
12 11 9 8 8 6 6 7 7 7 6 5 5 5 5 4 4 3 2 1 2 3 4 4 5 6 6 7 7 9 10 10 10 10 10 10 10 10 9 9 9 9 8 8 7 6 6 6 6
12 11 10 9 9 8 6 7 7 7 7 5 5 5 4 4 4 3 2 1 2 3 4 4 5 6 6 7 8 9 10 10 10 10 11 10 10 10 10 10 10 10 9 9 8 7 7 7 6
13 12 11 11 10 9 8 7 7 7 6 5 6 5 4 4 4 3 2 0 2 3 4 4 5 6 7 8 9 10 10 10 11 10 11 11 10 10 10 11 11 11 10 10 9 8 7 7 7
13 12 12 12 12 11 10 8 8 7 7 6 6 5 4 4 3 3 1 1 2 3 4 4 5 6 7 8 9 10 10 11 11 11 11 11 11 11 11 11 11 11 11 10 10 9 8 7 7
15 14 13 12 12 10 10 9 9 9 8 8 7 6 4 3 3 2 0 1 2 3 4 5 5 6 7 8 9 10 11 11 11 11 11 12 12 12 12 12 12 12 11 11 10 9 8 8 7
16 14 14 13 12 12 10 10 10 10 10 9 8 6 4 3 3 2 0 1 2 3 4 5 5 6 7 8 9 10 11 11 11 12 12 12 12 12 12 12 12 12 12 11 10 9 8 7 7
17 16 14 14 13 13 11 10 10 10 10 9 8 6 5 4 3 1 0 1 2 3 4 4 5 6 7 8 9 10 11 11 11 11 11 12 12 12 12 12 12 12 12 11 10 9 8 7 7
18 16 15 14 13 13 12 11 11 11 11 10 8 7 6 5 4 2 1 1 2 3 4 4 5 6 7 8 9 10 11 11 11 11 12 12 12 12 13 13 13 13 12 12 10 9 8 6 6
18 17 15 14 13 12 13 12 12 11 11 10 8 7 6 5 4 3 1 1 2 3 4 5 6 6 7 8 9 10 11 12 11 12 12 12 13 13 13 13 13 13 13 13 11 9 8 6 5
18 17 17 15 13 12 13 13 12 12 11 10 9 8 7 5 4 3 1 1 2 3 3 4 5 6 7 8 9 10 11 12 12 12 12 12 13 13 14 14 14 14 14 13 11 10 8 6 4
19 17 17 16 14 14 14 14 13 12 12 11 10 8 7 5 4 3 1 0 1 2 3 4 5 6 6 8 9 10 11 11 12 12 12 12 13 14 14 14 14 15 14 13 12 10 8 6 5
20 18 18 17 16 14 15 14 13 13 13 11 10 8 6 5 4 3 1 0 0 1 2 3 4 5 6 7 8 10 10 11 12 12 12 13 13 14 15 14 15 15 14 14 13 11 9 7 6
20 19 19 18 16 15 15 15 14 13 12 10 10 8 6 5 4 3 2 1 1 0 2 3 4 5 5 7 8 9 10 11 11 12 12 13 13 14 15 15 15 15 15 14 13 12 10 8 6
20 20 19 18 18 17 16 16 15 14 12 10 9 8 6 5 5 4 2 2 1 0 2 3 4 4 5 6 7 8 9 10 11 12 12 13 13 14 15 15 15 16 16 15 14 13 12 9 7
23 21 20 19 19 18 17 17 16 14 12 11 9 8 6 6 5 4 3 2 1 0 1 3 3 4 5 6 7 8 9 10 10 11 12 13 13 14 15 15 15 16 16 16 15 15 13 11 9
22 21 21 21 20 19 18 17 15 14 12 10 9 8 7 6 5 4 4 3 2 1 1 2 3 3 4 5 6 7 8 9 10 11 12 12 13 14 15 16 15 16 17 17 16 16 14 13 11
23 21 21 21 21 20 19 17 15 14 12 11 9 8 8 6 6 5 4 3 2 1 0 1 2 3 3 4 5 6 7 8 9 10 11 12 13 14 15 16 16 17 17 18 17 17 15 14 13
23 22 21 21 20 20 18 17 16 14 13 11 10 9 8 8 7 6 5 4 3 2 0 1 1 2 3 4 5 6 7 7 8 9 10 12 13 13 14 15 16 17 17 18 18 17 16 14 13
23 22 20 20 20 20 19 18 17 15 13 11 11 11 9 9 8 7 6 5 4 3 2 1 1 2 2 3 4 5 6 7 7 8 9 11 12 13 13 14 15 16 17 18 18 17 17 16 14
21 20 19 19 19 20 20 18 17 15 13 12 11 11 10 9 9 8 7 7 6 4 3 2 2 2 2 2 3 4 5 6 7 8 9 10 11 12 13 13 14 15 16 17 18 17 17 16 15
21 20 19 20 20 19 19 18 17 16 14 12 11 10 10 9 8 8 9 8 7 5 4 4 3 2 2 3 3 4 5 5 6 7 8 9 10 11 12 13 14 15 15 16 17 17 16 16 15
20 20 20 20 20 20 20 19 17 16 15 13 12 11 10 9 9 9 9 9 7 6 5 5 4 3 3 3 2 3 4 5 6 6 7 9 10 11 12 13 13 14 14 15 16 16 16 15 15
20 20 20 21 21 21 19 18 17 16 15 14 13 12 11 10 10 10 9 9 8 7 6 6 5 4 3 3 2 2 3 4 5 6 7 8 9 11 12 12 13 14 14 14 14 14 14 14 14
19 20 21 21 21 19 18 18 17 16 14 14 13 12 11 11 11 10 10 9 9 8 7 7 5 5 4 3 2 1 2 3 4 5 6 7 8 10 11 12 13 14 13 13 13 13 13 13 13
19 20 20 21 19 18 17 17 16 15 14 14 13 12 12 12 12 11 11 10 10 9 8 7 6 5 4 3 2 1 1 2 3 4 5 7 8 9 10 11 12 13 13 13 13 13 13 13 12
18 19 20 20 19 18 17 16 16 15 14 14 14 13 12 13 13 12 12 12 11 10 9 8 7 6 5 4 3 1 1 2 2 3 5 6 7 8 9 10 11 13 13 13 13 13 13 12 12
17 18 19 19 18 18 16 16 15 15 14 14 14 14 13 13 14 13 13 13 12 11 10 9 8 7 6 5 4 3 2 2 3 4 5 6 7 8 8 9 11 12 13 13 13 13 13 13 12
17 18 19 19 17 17 16 16 15 15 15 15 15 14 14 14 14 14 14 13 13 12 11 10 9 8 8 7 6 5 4 4 4 5 6 7 7 8 9 10 11 11 12 12 13 13 14 14 13
Wind_Direction
214 215 216 215 218 218 208 198 195 192 188 192 187 183 193 188 187 181 160 92 46 25 18 11 6 2 2 1 357 354 353 354 356 353 351 351 349 347 345 342 337 334 329 324 316 311 301 288 276
217 218 220 222 225 229 216 206 204 200 195 193 188 184 180 182 177 169 148 78 32 12 9 6 2 359 356 355 355 355 355 356 356 352 351 352 352 349 345 340 335 332 329 327 320 310 298 286 277
217 220 223 227 232 227 215 210 202 198 199 192 187 187 185 183 182 170 146 72 24 9 5 5 1 357 355 354 356 355 355 356 355 352 352 353 352 349 346 341 339 335 331 328 323 313 300 290 281
216 220 223 224 223 220 213 208 204 199 199 195 193 188 183 190 194 179 151 61 25 7 3 7 3 358 356 355 356 355 355 355 353 352 353 353 351 347 345 343 341 338 334 329 323 314 301 290 282
217 219 222 223 220 222 218 214 209 201 201 201 194 189 196 204 193 175 163 105 11 4 5 6 358 354 354 353 355 355 356 354 352 351 351 352 350 349 347 344 341 337 333 327 321 313 302 290 282
216 217 221 225 223 225 222 222 211 206 199 194 188 190 192 190 173 166 152 50 354 352 356 359 353 353 354 354 355 356 356 353 351 350 351 351 351 348 345 344 341 337 334 330 323 315 303 291 281
216 217 219 224 225 225 224 221 213 204 200 194 188 183 184 185 175 161 121 25 355 354 358 357 354 355 355 356 355 356 355 353 351 348 349 351 351 348 347 345 342 339 337 332 326 320 308 295 284
217 220 221 223 224 223 221 218 214 205 198 192 187 188 189 184 179 190 164 15 4 6 6 1 1 359 358 359 359 360 358 356 355 353 354 354 352 350 347 346 346 344 341 335 330 323 313 301 289
216 217 220 222 223 220 216 214 211 200 193 192 193 196 195 189 181 195 228 32 24 21 13 7 6 6 7 4 2 2 1 1 1 0 359 358 356 354 351 350 350 350 347 343 336 329 320 308 295
213 214 215 216 217 218 213 211 201 197 195 196 199 202 200 201 204 205 170 62 29 21 18 21 15 13 11 8 6 5 5 5 5 3 2 0 359 358 355 355 354 354 353 350 344 338 331 319 302
211 211 212 212 212 208 205 198 196 194 194 197 200 200 206 206 210 201 165 9 15 17 20 23 19 17 14 12 10 8 7 7 6 4 3 2 1 0 0 1 359 358 358 357 352 346 340 330 313
209 208 209 210 209 202 198 195 196 194 198 198 197 203 208 212 209 206 229 323 2 15 24 24 23 20 16 14 11 8 8 8 8 7 6 5 5 5 5 4 4 4 3 2 360 356 352 347 331
208 204 203 202 202 199 199 195 194 196 196 196 200 210 209 209 212 225 241 276 359 13 20 20 22 19 15 14 11 10 10 10 11 11 11 11 10 9 9 8 8 8 7 7 6 4 2 360 349
205 202 199 199 200 200 199 196 196 196 195 197 201 203 204 206 210 205 190 180 30 21 24 22 25 23 20 17 12 12 12 14 15 15 15 15 14 14 13 14 14 13 12 11 12 11 9 7 360
200 200 198 197 199 201 197 197 198 196 199 200 202 204 207 202 198 194 185 178 151 85 31 28 28 29 24 17 12 12 14 18 19 20 21 21 20 19 17 18 19 20 18 17 18 17 16 15 12
198 198 198 197 199 201 198 198 198 197 201 205 206 206 204 201 196 189 184 182 168 65 30 28 28 28 23 17 15 15 17 21 23 23 24 25 24 23 21 23 24 24 23 23 24 24 24 25 29
197 198 201 201 198 198 198 199 199 201 203 206 208 207 203 199 194 194 198 203 214 262 21 25 26 25 21 17 17 19 21 23 25 26 26 27 27 26 25 27 28 28 28 29 30 30 29 30 35
199 200 203 205 198 195 196 198 197 198 202 207 210 211 209 207 203 202 202 209 214 223 15 22 24 21 20 18 20 23 24 27 31 32 31 32 31 30 29 31 32 31 31 31 32 32 33 35 38
201 202 202 200 196 197 197 199 200 201 204 207 209 213 212 213 212 209 208 211 205 196 40 30 26 26 26 25 28 31 31 36 39 35 35 35 34 34 33 33 34 33 32 32 32 33 37 40 42
203 203 201 200 198 197 196 199 200 202 206 208 207 209 211 213 212 215 215 211 204 201 179 48 44 47 38 36 37 36 39 43 42 38 37 36 35 34 34 34 34 33 33 33 34 36 38 40 40
204 205 203 202 197 195 195 197 201 203 208 207 208 210 214 215 216 218 218 209 207 207 196 164 113 79 56 52 48 45 45 44 42 40 38 35 33 32 33 32 31 31 33 35 36 37 39 40 41
201 203 201 200 200 199 200 204 205 204 206 210 212 212 216 220 219 216 210 204 203 199 189 180 153 109 87 85 68 55 48 47 45 41 37 34 32 32 32 31 30 32 34 35 35 35 37 40 42
199 200 201 200 200 203 204 206 206 209 213 218 220 220 219 220 216 210 204 199 199 198 191 183 164 143 123 114 92 70 57 52 48 43 38 34 32 31 29 29 28 30 32 32 32 34 36 39 42
197 197 201 203 204 206 206 207 210 213 216 217 218 219 218 218 213 206 203 198 198 196 189 181 173 162 147 134 110 81 59 50 43 39 34 31 29 27 25 24 24 26 27 28 30 33 35 37 39
196 197 202 202 204 206 208 214 213 213 215 215 215 216 216 215 209 205 204 202 201 198 189 181 176 169 159 152 132 92 59 41 34 31 28 25 24 22 21 20 20 22 23 25 27 30 31 33 35
197 199 203 203 207 211 214 217 213 211 214 212 212 214 214 211 207 205 207 206 202 200 192 185 184 180 174 167 153 111 50 29 27 24 21 19 17 17 17 17 17 18 20 22 24 25 26 26 29
205 203 204 205 209 214 216 218 217 215 214 212 211 212 212 210 209 208 208 205 203 201 197 193 195 194 189 183 174 149 46 14 15 15 11 10 11 10 11 15 18 17 18 19 20 20 19 19 20
205 203 200 202 209 212 215 217 216 217 217 215 209 209 211 210 210 213 212 210 209 206 203 201 201 201 202 201 200 206 296 334 346 350 352 355 358 1 6 12 12 13 13 13 12 12 12 11 10
203 202 202 206 209 210 211 213 212 215 217 215 211 208 208 210 211 213 214 213 212 210 210 209 210 210 214 217 224 236 271 300 313 323 332 342 348 352 357 359 2 4 5 6 6 5 3 2 359
204 202 203 207 210 211 210 212 214 218 216 212 210 209 208 210 210 213 217 215 213 214 215 217 218 221 224 228 234 243 263 284 300 309 318 327 333 339 344 345 348 350 352 354 355 355 354 352 350
Height
5891 5892 5893 5894 5895 5896 5895 5897 5897 5898 5899 5899 5899 5900 5900 5901 5902 5904 5902 5900 5900 5899 5898 5897 5897 5896 5895 5894 5893 5892 5891 5890 5888 5887 5885 5883 5882 5880 5879 5878 5876 5875 5874 5873 5872 5871 5870 5870 5869
5890 5891 5893 5894 5894 5894 5895 5896 5896 5897 5898 5899 5899 5900 5900 5900 5900 5901 5900 5900 5899 5899 5898 5897 5896 5896 5895 5894 5893 5892 5891 5889 5888 5886 5884 5883 5881 5880 5878 5877 5875 5874 5873 5871 5870 5869 5869 5868 5868
5889 5890 5892 5893 5893 5894 5895 5895 5895 5896 5897 5898 5899 5899 5900 5900 5900 5900 5900 5900 5899 5898 5898 5897 5896 5896 5895 5894 5893 5892 5890 5889 5887 5886 5884 5882 5881 5879 5877 5876 5874 5873 5871 5870 5869 5868 5867 5866 5866
5888 5890 5891 5892 5892 5893 5893 5894 5894 5895 5897 5898 5898 5899 5899 5899 5899 5899 5899 5899 5899 5898 5897 5897 5896 5896 5895 5894 5893 5891 5890 5889 5887 5885 5883 5882 5880 5878 5876 5875 5873 5872 5870 5869 5867 5866 5865 5865 5864
5886 5888 5890 5890 5890 5891 5892 5893 5894 5895 5896 5897 5898 5898 5898 5899 5899 5899 5899 5899 5898 5898 5897 5897 5896 5896 5895 5894 5893 5891 5890 5888 5886 5885 5883 5881 5879 5877 5875 5874 5872 5870 5869 5867 5866 5864 5863 5863 5862
5885 5886 5888 5889 5889 5890 5891 5892 5893 5894 5895 5896 5897 5898 5898 5898 5898 5898 5898 5898 5898 5898 5897 5897 5896 5896 5895 5894 5892 5891 5889 5888 5886 5884 5882 5880 5878 5876 5874 5873 5871 5869 5867 5865 5864 5862 5861 5861 5860
5883 5885 5886 5887 5888 5889 5890 5891 5892 5893 5895 5896 5897 5897 5897 5898 5898 5898 5898 5898 5898 5898 5897 5897 5896 5896 5895 5894 5892 5891 5889 5887 5885 5884 5882 5880 5878 5876 5874 5872 5870 5868 5866 5864 5862 5860 5859 5859 5858
5880 5883 5883 5885 5886 5888 5889 5889 5891 5892 5894 5896 5897 5897 5897 5898 5898 5898 5898 5898 5898 5898 5897 5897 5896 5896 5895 5893 5892 5891 5889 5887 5885 5883 5881 5879 5877 5875 5873 5871 5868 5866 5864 5862 5860 5858 5857 5856 5856
5878 5881 5882 5883 5884 5886 5887 5888 5890 5891 5893 5895 5896 5897 5897 5897 5898 5898 5898 5898 5898 5898 5897 5897 5896 5896 5895 5893 5892 5890 5889 5887 5885 5883 5881 5879 5877 5874 5872 5869 5867 5865 5862 5860 5858 5856 5855 5854 5853
5875 5878 5880 5881 5883 5884 5885 5887 5889 5891 5893 5894 5895 5896 5896 5897 5897 5898 5898 5898 5898 5898 5898 5897 5896 5895 5894 5893 5892 5890 5888 5886 5884 5882 5880 5878 5876 5873 5871 5869 5866 5863 5861 5859 5856 5854 5853 5852 5851
5872 5875 5877 5879 5881 5882 5884 5886 5888 5890 5892 5893 5894 5895 5896 5896 5897 5897 5898 5898 5898 5898 5898 5897 5896 5895 5894 5893 5892 5890 5888 5886 5884 5882 5880 5878 5875 5873 5870 5868 5865 5862 5860 5857 5855 5853 5851 5850 5849
5870 5873 5875 5878 5879 5881 5883 5885 5887 5889 5891 5892 5893 5894 5895 5896 5897 5897 5897 5898 5898 5898 5897 5897 5896 5895 5894 5893 5891 5890 5888 5886 5884 5882 5880 5877 5875 5873 5870 5867 5864 5862 5859 5856 5854 5852 5850 5849 5848
5867 5871 5874 5876 5878 5880 5882 5884 5885 5887 5889 5891 5892 5893 5894 5895 5896 5896 5897 5897 5898 5897 5897 5897 5896 5895 5894 5893 5891 5890 5888 5886 5884 5882 5880 5877 5875 5872 5870 5867 5864 5861 5858 5856 5853 5851 5849 5848 5847
5866 5869 5872 5874 5876 5879 5881 5882 5884 5886 5888 5890 5891 5892 5893 5894 5895 5896 5897 5897 5897 5897 5897 5897 5896 5895 5894 5893 5892 5890 5888 5887 5885 5882 5880 5877 5875 5872 5870 5867 5864 5861 5858 5856 5853 5851 5849 5847 5846
5864 5867 5870 5873 5875 5877 5880 5882 5883 5885 5887 5889 5890 5892 5893 5894 5894 5895 5896 5897 5897 5897 5897 5896 5896 5895 5894 5893 5892 5891 5889 5887 5885 5883 5880 5878 5875 5873 5870 5867 5865 5862 5859 5856 5853 5851 5849 5847 5845
5862 5865 5868 5871 5873 5876 5880 5881 5882 5884 5887 5888 5890 5891 5892 5893 5894 5895 5895 5896 5897 5897 5896 5896 5896 5895 5894 5894 5892 5891 5889 5887 5885 5883 5881 5878 5876 5873 5871 5868 5865 5862 5859 5857 5854 5851 5849 5847 5846
5859 5863 5866 5869 5871 5874 5877 5879 5881 5883 5885 5887 5889 5890 5891 5892 5893 5894 5895 5896 5896 5896 5896 5896 5896 5895 5895 5894 5893 5891 5890 5888 5886 5884 5881 5879 5877 5874 5871 5869 5866 5863 5861 5858 5855 5852 5850 5848 5846
5858 5861 5864 5867 5869 5873 5875 5878 5880 5882 5884 5886 5887 5889 5890 5891 5893 5893 5894 5895 5896 5896 5896 5896 5896 5895 5895 5894 5893 5891 5890 5888 5886 5884 5882 5880 5878 5875 5873 5870 5867 5865 5862 5859 5856 5854 5851 5849 5848
5856 5859 5862 5865 5868 5871 5873 5876 5878 5881 5883 5885 5886 5888 5889 5891 5892 5893 5894 5894 5895 5895 5895 5896 5895 5895 5895 5894 5893 5892 5890 5889 5887 5885 5883 5881 5879 5876 5874 5871 5869 5866 5864 5861 5858 5855 5853 5851 5849
5853 5857 5860 5863 5866 5869 5872 5875 5877 5879 5882 5884 5885 5887 5888 5890 5891 5892 5893 5894 5894 5895 5895 5895 5895 5895 5895 5894 5893 5892 5891 5889 5888 5886 5884 5882 5880 5878 5875 5873 5870 5868 5865 5862 5860 5857 5854 5852 5850
5851 5855 5858 5861 5864 5868 5871 5874 5876 5878 5880 5882 5884 5886 5887 5889 5890 5891 5892 5893 5894 5894 5895 5895 5895 5895 5894 5894 5893 5892 5891 5890 5889 5887 5886 5884 5881 5879 5877 5874 5872 5870 5867 5864 5862 5859 5856 5854 5852
5849 5852 5856 5859 5863 5866 5870 5873 5875 5877 5879 5881 5883 5884 5886 5887 5889 5890 5891 5892 5893 5894 5894 5895 5895 5895 5894 5894 5894 5893 5892 5891 5890 5888 5886 5885 5883 5880 5878 5876 5874 5871 5869 5866 5863 5861 5858 5856 5854
5847 5850 5854 5858 5861 5865 5868 5871 5874 5875 5877 5880 5882 5883 5885 5886 5887 5889 5890 5891 5892 5893 5894 5894 5895 5895 5894 5894 5894 5893 5893 5892 5890 5889 5887 5886 5884 5881 5879 5877 5875 5872 5870 5867 5865 5862 5860 5857 5855
5845 5850 5853 5856 5859 5863 5866 5869 5872 5873 5876 5878 5880 5882 5883 5885 5886 5887 5889 5890 5891 5892 5893 5893 5894 5894 5894 5894 5894 5893 5893 5892 5891 5889 5888 5886 5884 5882 5880 5878 5875 5873 5870 5868 5865 5863 5861 5859 5857
5845 5849 5852 5854 5857 5861 5863 5866 5870 5872 5874 5876 5878 5880 5881 5883 5884 5886 5888 5889 5890 5891 5892 5893 5893 5894 5894 5894 5894 5893 5893 5892 5891 5889 5888 5887 5885 5883 5881 5878 5876 5873 5871 5868 5866 5864 5862 5860 5858
5843 5847 5851 5854 5857 5859 5861 5864 5868 5870 5872 5874 5876 5878 5879 5881 5883 5884 5886 5888 5889 5890 5891 5892 5893 5893 5894 5893 5893 5893 5892 5892 5891 5889 5888 5887 5885 5883 5881 5879 5876 5873 5871 5868 5866 5864 5862 5861 5859
5840 5844 5848 5852 5855 5858 5860 5863 5866 5867 5870 5872 5874 5876 5877 5879 5881 5883 5884 5886 5888 5889 5890 5891 5892 5892 5893 5893 5893 5892 5892 5891 5890 5889 5888 5887 5885 5883 5881 5879 5877 5874 5871 5869 5866 5864 5863 5861 5859
5839 5842 5846 5849 5852 5855 5858 5861 5864 5865 5867 5870 5872 5874 5876 5877 5879 5881 5883 5884 5886 5887 5889 5890 5891 5891 5892 5892 5892 5891 5891 5891 5890 5889 5888 5886 5885 5883 5881 5879 5876 5874 5871 5869 5866 5865 5863 5861 5860
5838 5841 5844 5847 5850 5854 5856 5861 5861 5863 5865 5867 5869 5871 5873 5875 5877 5879 5881 5882 5884 5885 5887 5888 5889 5890 5890 5890 5891 5890 5890 5890 5889 5888 5887 5886 5884 5882 5880 5878 5876 5874 5871 5869 5867 5865 5863 5861 5859
5836 5839 5842 5846 5848 5851 5854 5860 5858 5860 5862 5864 5867 5869 5871 5873 5875 5877 5878 5880 5882 5883 5885 5886 5887 5888 5888 5889 5889 5889 5889 5888 5888 5887 5886 5885 5883 5881 5880 5878 5876 5873 5871 5869 5867 5864 5862 5861 5859